Location: Noverd
(38.0910°N, 121.6877°W)
Time: 06:22:46
(UTC+00:00)

USA 215 - Pass Details

Date: 13 February 2026
Orbit: 1098 x 1109 km, 123.0° (Epoch: 10 January)

Event Time Altitude Azimuth Distance (km) Brightness Sun altitude
Rises 13:29:46 0° 109° (ESE) 3,923 7.6 -18.1°
Reaches altitude 10° 13:32:21 10° 103° (ESE) 2,967 6.8 -17.6°
Maximum altitude 13:38:29 44° 34° (NE) 1,487 4.2 -16.4°
Drops below altitude 10° 13:44:38 10° 325° (NW) 2,976 5.2 -15.2°
Enters shadow 13:45:35 - 322° (NW) 3,322 5.4 -15.0°
